This demonstration page uses our WeatherBlox Daily Observations layout. Learn more.

Left ArrowRight Arrow

34.02893, -84.19858

Hourly Observations for October 8, 2019

Temp ( °F °C ) Dew Point ( °F °C ) Humidity (%) Winds ( mph kmh ) Pressure ( in mb ) Visibility ( mi km ) Precip ( " mm )
12:53 am 00:53 Mostly Cloudy 67 19.4 62 16.7 84 84 N 5 7 29.99 1016 10 16 0.00 0.00
1:53 am 01:53 Clear 66 18.9 61 16.1 84 84 NNE 3 6 29.98 1015 10 16 0.00 0.00
2:53 am 02:53 Clear 64 17.8 61 16.1 90 90 N 3 6 29.98 1015 10 16 0.00 0.00
3:53 am 03:53 Clear 63 17.2 61 16.1 93 93 Calm 29.98 1015 10 16 0.00 0.00
4:53 am 04:53 Clear 63 17.2 61 16.1 93 93 Calm 29.98 1015 10 16 0.00 0.00
5:53 am 05:53 Mostly Cloudy 63 17.2 61 16.1 93 93 N 3 6 29.98 1015 10 16 0.00 0.00
6:53 am 06:53 Mostly Clear 64 17.8 62 16.7 93 93 NNW 7 11 30.00 1016 10 16 0.00 0.00
7:53 am 07:53 Mostly Cloudy 64 17.8 62 16.7 93 93 NNE 3 6 30.01 1016 10 16 0.00 0.00
8:53 am 08:53 Cloudy 66 18.9 62 16.7 87 87 NNW 5 7 30.02 1017 10 16 0.00 0.00
9:53 am 09:53 Hazy 69 20.6 62 16.7 78 78 N 3 6 30.03 1017 6 10 0.00 0.00
10:53 am 10:53 Cloudy 73 22.8 63 17.2 71 71 WNW 6 9 30.04 1017 10 16 0.00 0.00
11:53 am 11:53 Cloudy with Light Rain 72 22.2 67 19.4 84 84 NW 6 9 30.04 1017 10 16 0.01 0.25
12:53 pm 12:53 Cloudy 74 23.3 66 18.9 76 76 WNW 6 9 30.02 1017 10 16 0.00 0.00
1:53 pm 13:53 Cloudy 77 25 66 18.9 69 69 VRB 5 7 30.00 1016 10 16 0.00 0.00
2:53 pm 14:53 Mostly Cloudy 78 25.6 65 18.3 64 64 NW 8 13 29.97 1015 10 16 0.00 0.00
3:53 pm 15:53 Partly Cloudy 80 26.7 64 17.8 58 58 NW 7 11 29.96 1015 10 16 0.00 0.00
4:53 pm 16:53 Mostly Cloudy 80 26.7 63 17.2 56 56 WNW 7 11 29.96 1014 10 16 0.00 0.00
5:53 pm 17:53 Mostly Cloudy 79 26.1 61 16.1 54 54 NNW 7 11 29.96 1015 10 16 0.00 0.00
6:53 pm 18:53 Cloudy 78 25.6 62 16.7 58 58 NNE 5 7 29.97 1015 10 16 0.00 0.00
7:53 pm 19:53 Mostly Clear 74 23.3 63 17.2 69 69 Calm 29.98 1015 10 16 0.00 0.00
8:53 pm 20:53 Clear 73 22.8 64 17.8 74 74 VRB 3 6 29.99 1016 10 16 0.00 0.00
9:53 pm 21:53 Clear 71 21.7 64 17.8 79 79 VRB 3 6 30.02 1017 10 16 0.00 0.00
10:45 pm 22:45 Mostly Cloudy 69 20.6 65 18.3 87 87 E 8 13 30.04 1017 10 16 0.00 0.00
10:53 pm 22:53 Mostly Cloudy 69 20.6 65 18.3 87 87 E 7 11 30.04 1017 10 16 0.00 0.00
11:20 pm 23:20 Cloudy 69 20.6 65 18.3 87 87 E 7 11 30.05 1018 10 16 0.00 0.00
11:39 pm 23:39 Cloudy 68 20 63 17.2 84 84 VRB 6 9 30.05 1018 10 16 0.00 0.00
11:53 pm 23:53 Cloudy 68 20 63 17.2 84 84 VRB 7 11 30.05 1018 10 16 0.00 0.00

Powered by AerisWeather